User: anonymous   Login
Location: Blanot
(47.1713°N, 4.2340°E)
Time: 10:56:53
(UTC+00:00)
Language:

SL-16 R/B - Orbit

View from above orbital plane
View from above orbital plane
View from above satellite
View from above satellite

Ground track
Ground track

The orbit data is extracted from the following two-line orbital elements,

1 27006U 01056F   20270.83901896 -.00000048 +00000-0 -40818-5 0  9992
2 27006 099.4879 040.8665 0015437 079.2179 084.8070 13.70964621940512
Epoch (UTC): 26 September 2020 20:08:11
Eccentricity: 0.0015437
inclination: 99.4879°
perigee height: 985 km
apogee height: 1007 km
right ascension of ascending node: 40.8665°
argument of perigee: 79.2179°
revolutions per day: 13.70964621
mean anomaly at epoch: 84.8070°
orbit number at epoch: 94051

The dashed part of the orbit path shows where the satellite is in the earth's shadow,  

DLR